Regional Weather Roundup
Issued by NWS Kansas City/Pleasant Hill, MO

Home | Current Version | Previous Version | Text Only | Print | Product List | Glossary On
Versions: 1 2 3 4 5 6 7 8 9 10 11 12 13 14 15 16 17 18 19 20 21 22 23 24 25 26 27
000
ASUS43 KEAX 281610
RWREAX

WEATHER ROUNDUP FOR EASTERN KANSAS AND NORTHWEST MISSOURI
NATIONAL WEATHER SERVICE KANSAS CITY/PLEASANT HILL MO
1000 AM CST TUE FEB 28 2017

KSZ040-057-103>105-MOZ028-029-037-043-281700-
...KANSAS CITY METROPOLITAN AREA...

CITY           SKY/WX    TMP DP  RH WIND       PRES   REMARKS
K.C. INTL      CLOUDY    66  58  75 SW16G28   29.65F
K.C. DOWNTOWN  CLOUDY    67  57  70 SW18G24   29.66F
LEES SUMMIT    CLOUDY    66  58  75 S13G23    29.67F
OLATHE - IXD   CLOUDY    66  56  70 S23G30    29.68F
OLATHE - OJC   CLOUDY    65  58  78 SW18G28   29.67F
LAWRENCE       CLOUDY    66  57  72 S16G26    29.66F

$$

MOZ001>008-011>017-020>025-030>033-038>040-044>046-053-054-281700-
...NORTHERN AND CENTRAL MISSOURI...

CITY           SKY/WX    TMP DP  RH WIND       PRES   REMARKS
ST. JOSEPH     PTSUNNY   66  60  81 SW17      29.63F
MOSBY          CLOUDY    64  55  72 S13G21    29.67S
WARRENSBURG    CLOUDY    68  57  68 S24       29.69F
WHITEMAN AFB   NOT AVBL
CLINTON        CLOUDY    70  61  73 S14G28    29.73F
SEDALIA        CLOUDY    70  60  70 S18       29.73F
WARSAW         NOT AVBL
CHILLICOTHE      N/A     65  58  78 S14G25    29.67F
KIRKSVILLE     CLOUDY    66  57  72 SW21G32   29.69F

$$

MOZ041-047>049-056>058-063>065-088>090-097-281700-
...EASTERN AND SOUTHERN MISSOURI...

CITY           SKY/WX    TMP DP  RH WIND       PRES   REMARKS
ST. LOUIS INTL CLOUDY    66  57  72 S13       29.81F
SPIRIT OF STL  CLOUDY    65  59  81 SW10      29.81F
COLUMBIA       PTSUNNY   66  59  78 S14       29.76F
JEFFERSON CITY CLOUDY    67  58  72 S14       29.77F
ROLLA          CLOUDY    66  59  78 S16G26    29.80F
OSAGE BEACH    CLOUDY    68  59  73 S10       29.79S
SPRINGFIELD    CLOUDY    68  60  75 SW22G36   29.81S
BRANSON        CLOUDY    68  59  73 S14G23    29.87S
JOPLIN         CLOUDY    70  62  76 SW21G33   29.78S
WEST PLAINS    CLOUDY    65  60  84 S14G21    29.89F

$$

IAZ060-094-KSZ022-034>040-054-083-096-NEZ052-066-093-281700-
...KANSAS...SOUTHEAST NEBRASKA AND IOWA...

CITY           SKY/WX    TMP DP  RH WIND       PRES   REMARKS
TOPEKA         CLOUDY    66  57  72 SW17G25   29.64F
MANHATTAN      CLOUDY    57  48  72 SW6       29.64F
EMPORIA        MOSUNNY   67  45  45 SW23G32   29.68S
CHANUTE        CLOUDY    67  58  72 S23G36    29.72S
WICHITA        CLOUDY    57  42  57 SW10      29.69F
OMAHA          CLOUDY    43  38  82 N7        29.64R
LINCOLN        CLOUDY    44  39  82 W5        29.68R
FALLS CITY     MOSUNNY   60  50  69 SW13      29.62F
LAMONI         PTSUNNY   63  57  81 SW14      29.63S
DES MOINES     CLOUDY    60  48  64 W17       29.61S

$$





USA.gov is the U.S. government's official web portal to all federal, state and local government web resources and services.